Location: Firnhaberau
(48.4049°N, 10.8963°E)
Time: 19:52:42
(UTC+00:00)

NOSS 3-1 (C) - Pass Details

Date: 07 June 2020
Orbit: 752 x 1456 km, 63.4° (Epoch: 15 June)

Event Time Altitude Azimuth Distance (km) Brightness Sun altitude
Rises 01:07:38 0° 317° (NW) 3,946 7.0 -14.5°
Reaches altitude 10° 01:10:11 10° 314° (NW) 3,079 6.3 -14.3°
Maximum altitude 01:17:36 63° 236° (WSW) 1,437 4.1 -13.7°
Drops below altitude 10° 01:26:04 10° 159° (SSE) 3,499 6.0 -13.0°
Sets 01:29:08 0° 156° (SSE) 4,514 6.6 -12.8°
